Location: *
(46.3500°N, 10.9000°E)
Time: 23:00:02
(UTC+00:00)

Cosmos 2228 - Pass Details

Date: 09 April 2020
Orbit: 589 x 619 km, 82.5° (Epoch: 23 May)

Event Time Altitude Azimuth Distance (km) Brightness Sun altitude
Rises 19:06:20 0° 199° (SSW) 2,836 6.4 -12.2°
Reaches altitude 10° 19:08:33 10° 203° (SSW) 1,944 5.6 -12.6°
Maximum altitude 19:12:47 55° 282° (WNW) 732 3.8 -13.2°
Drops below altitude 10° 19:17:05 10° 1° (N) 1,978 6.0 -13.9°
Sets 19:19:22 0° 6° (N) 2,892 6.8 -14.2°
